TimeSAST,TemperatureF,Dew PointF,Humidity,Sea Level PressureIn,VisibilityMPH,Wind Direction,Wind SpeedMPH,Gust SpeedMPH,PrecipitationIn,Events,Conditions,WindDirDegrees,DateUTC
12:00 AM,50.0,44.6,82,30.36,6.2,WNW,9.2,-,N/A,,Mostly Cloudy,300,2011-10-04 22:00:00
1:00 AM,50.0,46.4,87,30.36,6.2,WNW,6.9,-,N/A,Rain,Light Rain,300,2011-10-04 23:00:00
2:00 AM,50,47,84,30.37,19,NW,6.9,,,,,320,2011-10-05 00:00:00
2:00 AM,50.0,46.4,87,30.36,6.2,NW,6.9,-,N/A,,Mostly Cloudy,320,2011-10-05 00:00:00
3:00 AM,50.0,46.4,87,30.36,6.2,WSW,5.8,-,N/A,Rain,Light Rain,250,2011-10-05 01:00:00
4:00 AM,50.0,48.2,94,30.36,6.2,West,5.8,-,N/A,,Mostly Cloudy,280,2011-10-05 02:00:00
5:00 AM,49,46,87,30.40,12,WNW,8.1,,,,Mostly Cloudy,300,2011-10-05 03:00:00
5:00 AM,50.0,46.4,87,30.39,6.2,WNW,8.1,-,N/A,,Mostly Cloudy,300,2011-10-05 03:00:00
6:00 AM,50.0,46.4,87,30.39,6.2,WNW,6.9,-,N/A,,Mostly Cloudy,300,2011-10-05 04:00:00
7:00 AM,50.0,48.2,94,30.42,5.0,West,9.2,-,N/A,Rain,Rain,280,2011-10-05 05:00:00
8:00 AM,52,50,89,30.43,12,North,6.9,,,,Partly Cloudy,350,2011-10-05 06:00:00
8:00 AM,51.8,50.0,94,30.42,6.2,North,5.8,-,N/A,,Mostly Cloudy,350,2011-10-05 06:00:00
9:00 AM,55.4,48.2,77,30.42,6.2,WNW,4.6,-,N/A,,Mostly Cloudy,290,2011-10-05 07:00:00
10:00 AM,59.0,46.4,63,30.42,6.2,Variable,2.3,-,N/A,,Mostly Cloudy,0,2011-10-05 08:00:00
11:00 AM,60.8,44.6,55,30.39,6.2,East,4.6,-,N/A,,Scattered Clouds,80,2011-10-05 09:00:00
12:00 PM,60.8,48.2,63,30.39,6.2,South,10.4,-,N/A,,Scattered Clouds,180,2011-10-05 10:00:00
1:00 PM,62.6,50.0,63,30.36,6.2,SSE,11.5,-,N/A,,Partly Cloudy,150,2011-10-05 11:00:00
2:00 PM,60.8,48.2,63,30.36,6.2,SE,11.5,-,N/A,,Partly Cloudy,140,2011-10-05 12:00:00
3:00 PM,60.8,50.0,68,30.36,6.2,ESE,11.5,-,N/A,,Partly Cloudy,120,2011-10-05 13:00:00
4:00 PM,60.8,48.2,63,30.33,6.2,ESE,11.5,-,N/A,,Partly Cloudy,110,2011-10-05 14:00:00
5:00 PM,60,50,61,30.33,12,East,9.2,,,,Scattered Clouds,100,2011-10-05 15:00:00
5:00 PM,59.0,50.0,72,30.30,6.2,East,9.2,-,N/A,,Partly Cloudy,100,2011-10-05 15:00:00
6:00 PM,57.2,48.2,72,30.30,-9999.0,SE,10.4,-,N/A,,Clear,130,2011-10-05 16:00:00
7:00 PM,53.6,48.2,82,30.33,-9999.0,ESE,5.8,-,N/A,,Clear,110,2011-10-05 17:00:00
8:00 PM,52,47,79,30.36,12,East,5.8,,,,Scattered Clouds,90,2011-10-05 18:00:00
8:00 PM,51.8,48.2,88,30.33,6.2,East,5.8,-,N/A,,Partly Cloudy,90,2011-10-05 18:00:00
9:00 PM,51.8,46.4,82,30.33,-9999.0,East,8.1,-,N/A,,Clear,100,2011-10-05 19:00:00
10:00 PM,50.0,46.4,87,30.33,-9999.0,ENE,4.6,-,N/A,,Clear,60,2011-10-05 20:00:00
11:00 PM,48.2,46.4,93,30.33,-9999.0,NNW,2.3,-,N/A,,Clear,340,2011-10-05 21:00:00